Regional Weather Roundup
Issued by NWS

Home | Current Version | Previous Version | Graphics & Text | Print | Product List | Glossary On
Versions: 1 2 3 4 5 6 7 8 9 10 11 12 13 14 15 16 17 18 19 20 21 22 23 24 25 26 27 28 29 30 31 32 33 34 35 36 37 38 39 40 41 42 43 44 45 46 47 48 49 50
000
ASUS44 KMEG 270516
RWRTN

TENNESSEE HOURLY STATE WEATHER ROUNDUP
NATIONAL WEATHER SERVICE MEMPHIS TN
1100 PM CST MON JAN 26 2015

TNZ002-004-019-021-049-052-054-088>092-270600-
WEST TENNESSEE

CITY           SKY/WX    TMP DP  RH WIND       PRES   REMARKS
MEMPHIS INTL   CLEAR     42  33  70 SW5       29.95S
NWS MEMPHIS      N/A     36 N/A N/A MISG        N/A
JACKSON        CLEAR     28  25  88 CALM      29.93F
DYERSBURG      CLEAR     32  19  59 CALM      29.95S
UNION CITY     CLEAR     27  25  93 CALM      29.92S
PARIS          CLOUDY    36  28  75 N5        29.94R WCI  32
LEXINGTON      CLEAR     30  27  86 CALM      29.92F
SAVANNAH       CLEAR     28  28 100 CALM      29.95F
$$

TNZ008-025-027-028-033-062-065-066-270600-
NORTH MIDDLE TENNESSEE

CITY           SKY/WX    TMP DP  RH WIND       PRES   REMARKS
NASHVILLE      CLOUDY    34  31  88 SE5       29.96F WCI  30
CLARKSVILLE    CLOUDY    34  31  88 SE5       29.95F WCI  30
SMYRNA         CLOUDY    33  31  93 CALM      29.97F
COOKEVILLE     PTCLDY    30  30 100 CALM      29.92F
CROSSVILLE     CLOUDY    29  26  89 W5        29.90S WCI  24
$$

TNZ061-075-076-078-094-096-097-270600-
SOUTH MIDDLE TENNESSEE

CITY           SKY/WX    TMP DP  RH WIND       PRES   REMARKS
FAYETTEVILLE   CLOUDY    34  28  80 MISG      29.94F
TULLAHOMA      CLOUDY    32  28  86 CALM      29.94F
WINCHESTER     CLOUDY    34  30  86 CALM      29.95F
MCMINNVILLE    CLOUDY    32  30  93 CALM      29.93F WCI  24
COLUMBIA       CLOUDY    37  37 100 CALM      29.92F
SHELBYVILLE    CLOUDY    34  32  93 CALM      29.96F
$$

TNZ017-018-042-046-047-270600-
NORTHEAST TENNESSEE

CITY           SKY/WX    TMP DP  RH WIND       PRES   REMARKS
TRI CITIES     CLOUDY    30  23  75 W8        29.87F WCI  22
ELIZABETHTON   CLOUDY    27  21  80 VRB3      29.86R
$$

TNZ012-013-036-069-073-074-270600-
CENTRAL EAST TENNESSEE

CITY           SKY/WX    TMP DP  RH WIND       PRES   REMARKS
KNOXVILLE      FLURRIES  30  28  92 SW8       29.94F WCI  22
OAK RIDGE      CLOUDY    32  28  85 VRB3      29.95F
GATLINBURG     CLOUDY    28  25  86 W7        29.93S WCI  21
MORRISTOWN     CLOUDY    30  25  80 W6        29.91S WCI  24
$$

TNZ083-085-099-270600-
SOUTHEAST TENNESSEE

CITY           SKY/WX    TMP DP  RH WIND       PRES   REMARKS
CHATTANOOGA    CLOUDY    35  30  82 CALM      29.96F
$$

SKY/WX REPORTED AS FAIR MEANS FEW OR NO CLOUDS BELOW
12 THOUSAND FEET.






USA.gov is the U.S. government's official web portal to all federal, state and local government web resources and services.